| time (UTC) | temp F | wind direction | speed MPH | gust MPH | rain 1hr in | rain 24hr in | rain mn in | humidity % | barometer mb |
| 20260502185717 | 56 | 245 | 3.0 | 7.0 | 0.00 | 0.08 | 0.08 | 73 | 1012.7 |
| 20260502184717 | 57 | 221 | 3.0 | 5.0 | 0.00 | 0.08 | 0.08 | 72 | 1012.7 |
| 20260502183815 | 57 | 208 | 3.0 | 5.0 | 0.00 | 0.08 | 0.08 | 74 | 1012.7 |
| 20260502182816 | 57 | 246 | 3.0 | 6.0 | 0.00 | 0.08 | 0.08 | 74 | 1013.0 |
| 20260502181915 | 56 | 214 | 5.0 | 8.0 | 0.00 | 0.08 | 0.08 | 75 | 1013.0 |
| 20260502180917 | 56 | 166 | 2.0 | 5.0 | 0.00 | 0.08 | 0.08 | 75 | 1013.0 |
| 20260502163916 | 54 | 221 | 4.0 | 6.0 | 0.00 | 0.08 | 0.08 | 79 | 1013.8 |
| 20260502162916 | 53 | 206 | 4.0 | 7.0 | 0.00 | 0.08 | 0.08 | 79 | 1013.8 |
| 20260502161917 | 53 | 203 | 1.0 | 5.0 | 0.00 | 0.08 | 0.08 | 79 | 1013.9 |
| 20260502161016 | 52 | 221 | 1.0 | 4.0 | 0.00 | 0.08 | 0.08 | 79 | 1014.1 |
| 20260502152116 | 50 | 202 | 1.0 | 2.0 | 0.00 | 0.08 | 0.08 | 77 | 1014.4 |
| 20260502151116 | 49 | 180 | 0.0 | 1.0 | 0.00 | 0.08 | 0.08 | 77 | 1014.3 |
| 20260502150116 | 49 | 270 | 0.0 | 0.0 | 0.00 | 0.08 | 0.08 | 77 | 1014.4 |
| 20260502123431 | 45 | 70 | 1.0 | 1.0 | 0.05 | 0.08 | 0.08 | 72 | 1014.9 |
| 20260502122417 | 45 | 120 | 2.0 | 3.0 | 0.05 | 0.07 | 0.07 | 70 | 1014.9 |
| 20260502121415 | 45 | 180 | 0.0 | 0.0 | 0.05 | 0.06 | 0.06 | 70 | 1015.0 |
| 20260502120515 | 45 | 225 | 0.0 | 0.0 | 0.04 | 0.05 | 0.05 | 70 | 1014.9 |
| 20260502115516 | 45 | 195 | 0.0 | 1.0 | 0.05 | 0.05 | 0.04 | 70 | 1014.8 |
| 20260502114515 | 45 | 79 | 1.0 | 1.0 | 0.04 | 0.04 | 0.04 | 69 | 1014.7 |
| 20260502113515 | 45 | 45 | 0.0 | 0.0 | 0.04 | 0.04 | 0.03 | 69 | 1014.7 |
| 20260502112516 | 45 | 292 | 0.0 | 1.0 | 0.02 | 0.02 | 0.02 | 68 | 1015.0 |
| 20260502111516 | 45 | 292 | 0.0 | 0.0 | 0.01 | 0.01 | 0.01 | 68 | 1014.8 |
| 20260502110517 | 45 | 292 | 0.0 | 0.0 | 0.01 | 0.01 | 0.01 | 67 | 1014.5 |
| 20260502105517 | 45 | 292 | 1.0 | 1.0 | 0.00 | 0.00 | 0.00 | 66 | 1014.4 |
| 20260502104516 | 45 | 292 | 0.0 | 0.0 | 0.00 | 0.00 | 0.00 | 65 | 1014.0 |
| 20260502103517 | 45 | 292 | 0.0 | 0.0 | 0.00 | 0.00 | 0.00 | 64 | 1013.9 |
| 20260502102515 | 45 | 292 | 0.0 | 0.0 | 0.00 | 0.00 | 0.00 | 64 | 1013.8 |
| 20260502101516 | 44 | 292 | 0.0 | 1.0 | 0.00 | 0.00 | 0.00 | 64 | 1013.9 |
| 20260502100516 | 44 | 292 | 0.0 | 0.0 | 0.00 | 0.00 | 0.00 | 63 | 1013.6 |
| 20260502090717 | 45 | 292 | 0.0 | 0.0 | 0.00 | 0.00 | 0.00 | 61 | 1013.5 |
| 20260502070817 | 46 | 292 | 0.0 | 0.0 | 0.00 | 0.00 | 0.00 | 56 | 1013.6 |
| 20260502065817 | 46 | 247 | 0.0 | 1.0 | 0.00 | 0.00 | 0.00 | 55 | 1013.9 |
| 20260502064814 | 45 | 270 | 0.0 | 1.0 | 0.00 | 0.00 | 0.00 | 54 | 1013.8 |
| 20260502062815 | 45 | 225 | 1.0 | 2.0 | 0.00 | 0.00 | 0.00 | 53 | 1014.1 |
| 20260502061816 | 44 | 225 | 1.0 | 2.0 | 0.00 | 0.00 | 0.00 | 54 | 1013.9 |
| 20260502054915 | 44 | 225 | 0.0 | 1.0 | 0.00 | 0.00 | 0.00 | 52 | 1013.5 |
| 20260502054014 | 44 | 225 | 0.0 | 1.0 | 0.00 | 0.00 | 0.00 | 52 | 1013.6 |
| 20260502053114 | 44 | 225 | 0.0 | 1.0 | 0.00 | 0.00 | 0.00 | 50 | 1013.8 |
| 20260502051116 | 43 | 225 | 0.0 | 0.0 | 0.00 | 0.00 | 0.00 | 49 | 1013.7 |
| 20260502050115 | 44 | 225 | 0.0 | 0.0 | 0.00 | 0.00 | 0.00 | 50 | 1013.8 |
| 20260502045116 | 44 | 225 | 0.0 | 0.0 | 0.00 | 0.00 | 0.00 | 50 | 1013.8 |
| 20260502043216 | 45 | 225 | 0.0 | 0.0 | 0.00 | 0.00 | 0.00 | 49 | 1013.9 |
| 20260502042216 | 45 | 225 | 0.0 | 0.0 | 0.00 | 0.00 | 0.00 | 48 | 1014.0 |
| 20260502041216 | 45 | 225 | 0.0 | 0.0 | 0.00 | 0.00 | 0.00 | 48 | 1014.0 |
| 20260502040215 | 45 | 225 | 0.0 | 1.0 | 0.00 | 0.00 | 0.00 | 48 | 1014.1 |
| 20260502035222 | 45 | 225 | 2.0 | 2.0 | 0.00 | 0.00 | 0.00 | 47 | 1014.1 |
| 20260502034225 | 45 | 239 | 1.0 | 3.0 | 0.00 | 0.00 | 0.00 | 47 | 1014.1 |
| 20260502033323 | 45 | 270 | 1.0 | 1.0 | 0.00 | 0.00 | 0.00 | 46 | 1013.9 |
| 20260502032325 | 45 | 270 | 0.0 | 0.0 | 0.00 | 0.00 | 0.00 | 46 | 1013.8 |
| 20260502031324 | 45 | 270 | 0.0 | 0.0 | 0.00 | 0.00 | 0.00 | 45 | 1013.8 |
| 20260502030423 | 45 | 270 | 0.0 | 0.0 | 0.00 | 0.00 | 0.00 | 44 | 1013.8 |
| 20260502025425 | 44 | 270 | 0.0 | 0.0 | 0.00 | 0.00 | 0.00 | 44 | 1013.8 |
| 20260502024522 | 44 | 270 | 0.0 | 0.0 | 0.00 | 0.00 | 0.00 | 43 | 1013.5 |
| 20260502023524 | 44 | 270 | 0.0 | 0.0 | 0.00 | 0.00 | 0.00 | 42 | 1013.6 |
| 20260502022525 | 44 | 270 | 0.0 | 0.0 | 0.00 | 0.00 | 0.00 | 43 | 1013.7 |
| 20260502021523 | 44 | 270 | 0.0 | 0.0 | 0.00 | 0.00 | 0.00 | 42 | 1013.7 |
| 20260502020523 | 44 | 270 | 0.0 | 0.0 | 0.00 | 0.00 | 0.00 | 41 | 1013.8 |
| 20260502015525 | 44 | 270 | 0.0 | 0.0 | 0.00 | 0.00 | 0.00 | 41 | 1013.7 |
| 20260502014523 | 45 | 270 | 0.0 | 0.0 | 0.00 | 0.00 | 0.00 | 41 | 1013.7 |
| 20260502013522 | 45 | 270 | 0.0 | 0.0 | 0.00 | 0.00 | 0.00 | 41 | 1013.6 |
| 20260502012524 | 45 | 270 | 0.0 | 0.0 | 0.00 | 0.00 | 0.00 | 40 | 1013.6 |
| 20260502011523 | 46 | 270 | 0.0 | 0.0 | 0.00 | 0.00 | 0.00 | 41 | 1013.6 |
| 20260502010525 | 46 | 270 | 0.0 | 0.0 | 0.00 | 0.00 | 0.00 | 41 | 1013.5 |
| 20260502005523 | 47 | 270 | 0.0 | 0.0 | 0.00 | 0.00 | 0.00 | 41 | 1013.5 |
| 20260502003722 | 48 | 270 | 0.0 | 0.0 | 0.00 | 0.00 | 0.00 | 40 | 1013.3 |
| 20260502002724 | 49 | 270 | 0.0 | 0.0 | 0.00 | 0.01 | 0.00 | 40 | 1013.2 |
| 20260502001723 | 50 | 270 | 0.0 | 0.0 | 0.00 | 0.01 | 0.00 | 39 | 1013.0 |
| 20260502000726 | 51 | 270 | 0.0 | 0.0 | 0.00 | 0.01 | 0.00 | 39 | 1012.9 |
| 20260501235723 | 52 | 270 | 0.0 | 0.0 | 0.00 | 0.01 | 0.00 | 40 | 1012.7 |
| 20260501234723 | 53 | 270 | 0.0 | 0.0 | 0.00 | 0.01 | 0.00 | 40 | 1012.7 |
| 20260501234623 | 53 | 270 | 0.0 | 0.0 | 0.00 | 0.01 | 0.00 | 40 | 1012.6 |
| 20260501233623 | 54 | 270 | 0.0 | 0.0 | 0.00 | 0.01 | 0.00 | 39 | 1012.4 |
| 20260501231724 | 57 | 270 | 0.0 | 0.0 | 0.00 | 0.01 | 0.00 | 40 | 1012.0 |
| 20260501230822 | 57 | 202 | 0.0 | 0.0 | 0.00 | 0.01 | 0.00 | 39 | 1011.9 |
| 20260501225823 | 58 | 292 | 0.0 | 0.0 | 0.00 | 0.01 | 0.00 | 41 | 1012.0 |
| 20260501224823 | 59 | 295 | 1.0 | 2.0 | 0.00 | 0.01 | 0.00 | 41 | 1011.9 |
| 20260501222824 | 61 | 171 | 1.0 | 3.0 | 0.00 | 0.01 | 0.00 | 42 | 1011.9 |
| 20260501221823 | 62 | 202 | 0.0 | 1.0 | 0.00 | 0.01 | 0.00 | 42 | 1011.8 |
| 20260501220922 | 62 | 12 | 0.0 | 1.0 | 0.00 | 0.01 | 0.00 | 42 | 1011.7 |
| 20260501215924 | 62 | 77 | 0.0 | 1.0 | 0.00 | 0.01 | 0.00 | 42 | 1011.7 |
| 20260501214923 | 62 | 243 | 2.0 | 5.0 | 0.00 | 0.01 | 0.00 | 44 | 1011.7 |
| 20260501213924 | 62 | 214 | 4.0 | 10.0 | 0.00 | 0.01 | 0.00 | 44 | 1011.6 |
| 20260501213022 | 63 | 251 | 3.0 | 4.0 | 0.00 | 0.01 | 0.00 | 44 | 1011.3 |
| 20260501211122 | 62 | 328 | 2.0 | 4.0 | 0.00 | 0.01 | 0.00 | 45 | 1011.4 |
| 20260501210123 | 63 | 221 | 3.0 | 7.0 | 0.00 | 0.01 | 0.00 | 46 | 1011.3 |
| 20260501204223 | 63 | 340 | 3.0 | 6.0 | 0.00 | 0.01 | 0.00 | 47 | 1011.1 |
| 20260501203224 | 62 | 247 | 2.0 | 6.0 | 0.00 | 0.01 | 0.00 | 47 | 1010.9 |
| 20260501202223 | 63 | 214 | 2.0 | 4.0 | 0.00 | 0.01 | 0.00 | 49 | 1010.8 |
| 20260501201224 | 62 | 353 | 3.0 | 5.0 | 0.00 | 0.01 | 0.00 | 49 | 1011.0 |
| 20260501200322 | 62 | 270 | 2.0 | 4.0 | 0.00 | 0.01 | 0.00 | 50 | 1011.0 |
| 20260501195324 | 62 | 202 | 3.0 | 5.0 | 0.00 | 0.01 | 0.00 | 50 | 1011.1 |
| 20260501194323 | 62 | 105 | 3.0 | 7.0 | 0.00 | 0.01 | 0.00 | 52 | 1011.1 |
| 20260501193323 | 62 | 228 | 4.0 | 7.0 | 0.00 | 0.01 | 0.00 | 52 | 1011.1 |
| 20260501191323 | 62 | 223 | 4.0 | 6.0 | 0.00 | 0.01 | 0.00 | 54 | 1011.3 |